Orbital Elements
Epoch 2024 Oct. 17.0 TT = JDT 2460600.5
T 2025 Apr. 4.29535 TT Rudenko
q 2.3144104 (2000.0) P Q
z +0.0042317 Peri. 168.84354 -0.77418314 -0.46405995
+/-0.0015592 Node 328.14033 +0.49963204 -0.03052317
e 0.9902061 Incl. 54.63642 +0.38859785 -0.88527775
From 45 observations 2024 Oct. 28-Nov. 11, mean residual 0".3.
|